GW0175 Weather Reports


time (UTC)temp
C
wind
direction
speed
KPH
gust
KPH
rain 1hr
cm
rain 24hr
cm
rain mn
cm
humidity
%
barometer
mb
20260902014926 31 23 4.8 4.8 0.00 0.00 0.00 37 1012.4
20260902014423 31 41 4.8 6.4 0.00 0.00 0.00 37 1012.0
20260902013922 31 10 6.4 9.7 0.00 0.00 0.00 37 1012.2
20260902013418 31 4 6.4 9.7 0.00 0.00 0.00 37 1012.1
20260902012913 31 346 8.0 8.0 0.00 0.00 0.00 37 1012.0
20260902012409 31 0 1.6 8.0 0.00 0.00 0.00 37 1012.2
20260902011904 31 19 8.0 9.7 0.00 0.00 0.00 37 1011.9
20260902011359 32 11 4.8 9.7 0.00 0.00 0.00 37 1012.1
20260902010858 32 8 0.0 11.3 0.00 0.00 0.00 36 1012.0
20260902010353 32 30 3.2 8.0 0.00 0.00 0.00 36 1012.1
20260902005853 32 21 8.0 14.5 0.00 0.00 0.00 36 1011.8
20260902005346 32 6 4.8 12.9 0.00 0.00 0.00 35 1011.9
20260902004842 32 15 12.9 14.5 0.00 0.00 0.00 34 1011.6
20260902004337 33 3 9.7 14.5 0.00 0.00 0.00 33 1011.8
20260902003832 33 12 6.4 14.5 0.00 0.00 0.00 33 1011.9
20260902003327 33 355 11.3 14.5 0.00 0.00 0.00 34 1011.5
20260902002823 33 17 11.3 14.5 0.00 0.00 0.00 34 1011.8
20260902002322 33 17 9.7 17.7 0.00 0.00 0.00 34 1011.5
20260902001817 33 18 11.3 20.9 0.00 0.00 0.00 34 1011.5
20260902001313 33 27 12.9 24.1 0.00 0.00 0.00 34 1011.5
20260902000812 33 0 17.7 22.5 0.00 0.00 0.00 33 1011.6
20260902000307 34 351 6.4 17.7 0.00 0.00 0.00 32 1011.5
20260901235803 34 354 0.0 11.3 0.00 0.00 0.00 30 1011.6
20260901235257 34 0 1.6 8.0 0.00 0.00 0.00 30 1011.4
20260901234756 34 357 8.0 11.3 0.00 0.00 0.00 30 1011.6
20260901234251 35 8 11.3 16.1 0.00 0.00 0.00 30 1011.4
20260901233746 34 2 11.3 17.7 0.00 0.00 0.00 30 1011.4
20260901233242 34 4 11.3 20.9 0.00 0.00 0.00 30 1011.4
20260901232742 34 4 20.9 25.7 0.00 0.00 0.00 30 1011.5
20260901232232 35 346 8.0 24.1 0.00 0.00 0.00 30 1011.3
20260901231728 34 343 4.8 20.9 0.00 0.00 0.00 30 1011.3
20260901231224 34 313 0.0 16.1 0.00 0.00 0.00 30 1011.3
20260901230720 34 354 6.4 11.3 0.00 0.00 0.00 29 1011.2
20260901230219 36 15 0.0 1.6 0.00 0.00 0.00 27 1011.1
20260901225714 36 353 0.0 4.8 0.00 0.00 0.00 27 1011.5
20260901225209 36 216 4.8 6.4 0.00 0.00 0.00 26 1011.6
20260901224705 37 192 1.6 4.8 0.00 0.00 0.00 24 1011.2
20260901224201 38 194 0.0 3.2 0.00 0.00 0.00 24 1011.6
20260901223657 36 161 3.2 8.0 0.00 0.00 0.00 26 1011.4
20260901223151 36 194 4.8 12.9 0.00 0.00 0.00 27 1011.4
20260901222647 37 246 4.8 11.3 0.00 0.00 0.00 26 1011.6
20260901222143 36 222 4.8 14.5 0.00 0.00 0.00 27 1011.3
20260901221639 36 199 4.8 12.9 0.00 0.00 0.00 28 1011.6
20260901221135 37 180 11.3 12.9 0.00 0.00 0.00 27 1011.9
20260901220634 37 201 3.2 8.0 0.00 0.00 0.00 27 1011.4
20260901220134 36 220 4.8 16.1 0.00 0.00 0.00 27 1011.4
20260901215632 36 252 11.3 14.5 0.00 0.00 0.00 27 1011.5
20260901215126 37 180 1.6 6.4 0.00 0.00 0.00 27 1011.6
20260901214624 36 157 3.2 19.3 0.00 0.00 0.00 28 1011.6
20260901214119 37 167 9.7 12.9 0.00 0.00 0.00 27 1011.8
20260901213619 36 159 9.7 16.1 0.00 0.00 0.00 28 1011.8
20260901213113 36 174 12.9 19.3 0.00 0.00 0.00 28 1011.8
20260901212608 36 187 6.4 11.3 0.00 0.00 0.00 28 1012.0
20260901212104 36 172 0.0 22.5 0.00 0.00 0.00 28 1011.9
20260901211559 35 193 8.0 20.9 0.00 0.00 0.00 29 1011.8
20260901211055 36 168 3.2 11.3 0.00 0.00 0.00 28 1011.8
20260901210550 36 90 1.6 14.5 0.00 0.00 0.00 28 1011.8
20260901210047 36 140 0.0 6.4 0.00 0.00 0.00 28 1012.0
20260901205542 35 175 12.9 12.9 0.00 0.00 0.00 28 1012.2
20260901205041 37 160 20.9 20.9 0.00 0.00 0.00 26 1012.1
20260901204538 37 168 6.4 20.9 0.00 0.00 0.00 26 1012.3
20260901204033 37 112 3.2 11.3 0.00 0.00 0.00 27 1012.3
20260901203527 36 178 4.8 16.1 0.00 0.00 0.00 28 1012.5
20260901203022 37 117 4.8 4.8 0.00 0.00 0.00 27 1012.7
20260901202517 36 157 4.8 9.7 0.00 0.00 0.00 28 1012.7
20260901202013 36 170 8.0 9.7 0.00 0.00 0.00 27 1013.0
20260901201508 36 182 6.4 20.9 0.00 0.00 0.00 28 1012.9
20260901201003 36 213 4.8 11.3 0.00 0.00 0.00 28 1013.2
20260901200457 36 229 9.7 14.5 0.00 0.00 0.00 28 1013.1
20260901195956 36 174 14.5 14.5 0.00 0.00 0.00 28 1013.3
20260901195455 36 162 3.2 6.4 0.00 0.00 0.00 29 1013.1
20260901194949 36 144 6.4 12.9 0.00 0.00 0.00 28 1013.2
20260901194444 36 191 9.7 11.3 0.00 0.00 0.00 28 1013.3
20260901193940 35 169 4.8 19.3 0.00 0.00 0.00 28 1013.4
20260901193440 36 156 4.8 9.7 0.00 0.00 0.00 27 1013.2
20260901192939 35 177 12.9 17.7 0.00 0.00 0.00 29 1013.1
20260901192435 36 240 11.3 11.3 0.00 0.00 0.00 28 1013.2
20260901191931 36 145 1.6 9.7 0.00 0.00 0.00 30 1013.7
20260901191427 35 187 6.4 16.1 0.00 0.00 0.00 30 1013.4
20260901190922 35 110 4.8 14.5 0.00 0.00 0.00 31 1013.7
20260901190422 36 113 8.0 8.0 0.00 0.00 0.00 30 1013.7
20260901185920 35 243 3.2 14.5 0.00 0.00 0.00 31 1013.7
20260901185420 35 155 8.0 12.9 0.00 0.00 0.00 31 1013.7
20260901184914 35 180 1.6 6.4 0.00 0.00 0.00 31 1013.8
20260901184410 35 186 14.5 14.5 0.00 0.00 0.00 32 1013.8
20260901183905 35 209 0.0 9.7 0.00 0.00 0.00 31 1013.9
20260901183405 34 166 11.3 14.5 0.00 0.00 0.00 32 1014.2
20260901182901 34 160 11.3 14.5 0.00 0.00 0.00 33 1014.4
20260901182355 34 169 4.8 12.9 0.00 0.00 0.00 34 1014.4
20260901181850 33 190 8.0 8.0 0.00 0.00 0.00 34 1014.6
20260901181345 34 197 4.8 8.0 0.00 0.00 0.00 34 1014.5
20260901180844 33 235 3.2 11.3 0.00 0.00 0.00 35 1014.4
20260901180343 33 194 4.8 9.7 0.00 0.00 0.00 35 1014.6
20260901175842 33 177 8.0 12.9 0.00 0.00 0.00 35 1014.8
20260901175337 33 135 3.2 11.3 0.00 0.00 0.00 35 1014.9
20260901174832 33 90 3.2 9.7 0.00 0.00 0.00 36 1015.0
20260901174328 33 243 6.4 9.7 0.00 0.00 0.00 37 1014.9
20260901173823 32 150 3.2 12.9 0.00 0.00 0.00 38 1014.9
20260901173318 32 202 6.4 8.0 0.00 0.00 0.00 38 1014.9
20260901172815 32 192 1.6 12.9 0.00 0.00 0.00 38 1015.1
20260901172314 32 189 3.2 19.3 0.00 0.00 0.00 39 1014.9
20260901171812 32 135 4.8 11.3 0.00 0.00 0.00 41 1015.1
20260901171311 31 180 8.0 17.7 0.00 0.00 0.00 41 1015.4
20260901170810 31 146 3.2 12.9 0.00 0.00 0.00 41 1015.3
20260901170305 32 171 11.3 12.9 0.00 0.00 0.00 40 1015.3
20260901165803 31 183 4.8 14.5 0.00 0.00 0.00 42 1015.5
20260901165258 31 214 8.0 14.5 0.00 0.00 0.00 43 1015.3
20260901164755 31 164 4.8 11.3 0.00 0.00 0.00 42 1015.4
20260901164250 31 179 9.7 16.1 0.00 0.00 0.00 42 1015.4
20260901163745 31 225 8.0 9.7 0.00 0.00 0.00 42 1015.5
20260901163245 31 120 3.2 9.7 0.00 0.00 0.00 44 1015.4
20260901162740 31 194 8.0 9.7 0.00 0.00 0.00 43 1015.4
20260901162239 30 135 4.8 9.7 0.00 0.00 0.00 45 1015.6
20260901161738 30 235 0.0 11.3 0.00 0.00 0.00 46 1015.3
20260901161233 30 191 8.0 12.9 0.00 0.00 0.00 46 1015.5
20260901160729 30 206 4.8 11.3 0.00 0.00 0.00 47 1015.3
20260901160225 30 144 3.2 9.7 0.00 0.00 0.00 47 1015.3
20260901155723 30 201 6.4 11.3 0.00 0.00 0.00 47 1015.3
20260901155218 29 214 8.0 14.5 0.00 0.00 0.00 48 1015.4
20260901154714 28 172 3.2 11.3 0.00 0.00 0.00 49 1015.5
20260901154208 28 186 1.6 20.9 0.00 0.00 0.00 49 1015.3
20260901153704 28 158 9.7 17.7 0.00 0.00 0.00 50 1015.6
20260901153157 28 156 6.4 9.7 0.00 0.00 0.00 49 1015.3
20260901152652 28 152 6.4 12.9 0.00 0.00 0.00 51 1015.4
20260901152151 28 227 9.7 14.5 0.00 0.00 0.00 52 1015.4
20260901151647 27 179 11.3 14.5 0.00 0.00 0.00 53 1015.7
20260901151146 27 188 11.3 24.1 0.00 0.00 0.00 53 1015.6
20260901150645 27 162 6.4 22.5 0.00 0.00 0.00 53 1015.6
20260901150143 27 194 4.8 14.5 0.00 0.00 0.00 53 1015.4
20260901145641 27 192 8.0 20.9 0.00 0.00 0.00 53 1015.3
20260901145136 27 190 8.0 19.3 0.00 0.00 0.00 54 1015.5
20260901144632 27 194 8.0 14.5 0.00 0.00 0.00 54 1015.6
20260901144127 27 194 8.0 11.3 0.00 0.00 0.00 55 1015.5
20260901143622 27 191 0.0 14.5 0.00 0.00 0.00 56 1015.7
20260901143118 26 180 6.4 11.3 0.00 0.00 0.00 55 1015.6
20260901142614 26 152 11.3 11.3 0.00 0.00 0.00 56 1015.6
20260901142113 26 152 8.0 11.3 0.00 0.00 0.00 56 1015.8
20260901141608 26 178 4.8 8.0 0.00 0.00 0.00 57 1015.8
20260901141103 26 191 6.4 8.0 0.00 0.00 0.00 57 1015.8
20260901140601 25 223 6.4 6.4 0.00 0.00 0.00 57 1015.7
20260901140056 25 180 3.2 8.0 0.00 0.00 0.00 58 1015.8
20260901135555 25 175 1.6 8.0 0.00 0.00 0.00 59 1015.7
20260901135050 25 150 3.2 6.4 0.00 0.00 0.00 59 1015.6
20260901134546 25 163 4.8 6.4 0.00 0.00 0.00 59 1015.6
20260901134041 24 105 0.0 3.2 0.00 0.00 0.00 60 1015.6
20260901133540 23 162 0.0 3.2 0.00 0.00 0.00 61 1015.6
20260901133039 23 160 0.0 1.6 0.00 0.00 0.00 61 1015.3
20260901132539 23 160 0.0 1.6 0.00 0.00 0.00 61 1015.5
20260901132039 23 172 0.0 0.0 0.00 0.00 0.00 62 1015.4
20260901131533 23 172 0.0 3.2 0.00 0.00 0.00 63 1015.1
20260901131028 22 180 1.6 4.8 0.00 0.00 0.00 63 1015.4
20260901130528 22 148 3.2 3.2 0.00 0.00 0.00 63 1015.1
20260901130027 22 175 1.6 3.2 0.00 0.00 0.00 63 1015.4
20260901125525 22 180 0.0 3.2 0.00 0.00 0.00 63 1015.4
20260901125015 22 145 0.0 3.2 0.00 0.00 0.00 63 1015.3
20260901124510 22 180 1.6 3.2 0.00 0.00 0.00 63 1014.8
20260901124009 22 157 3.2 4.8 0.00 0.00 0.00 63 1014.7
20260901123505 22 174 1.6 6.4 0.00 0.00 0.00 63 1014.7
20260901123004 22 150 3.2 6.4 0.00 0.00 0.00 63 1014.5
20260901122503 22 147 4.8 4.8 0.00 0.00 0.00 63 1014.6
20260901121956 22 176 6.4 6.4 0.00 0.00 0.00 63 1014.4
20260901121452 22 169 6.4 8.0 0.00 0.00 0.00 63 1014.6
20260901120947 22 162 4.8 6.4 0.00 0.00 0.00 62 1014.3
20260901120447 22 147 3.2 6.4 0.00 0.00 0.00 62 1014.5
20260901115942 22 168 1.6 6.4 0.00 0.00 0.00 61 1014.4
20260901115437 22 178 4.8 6.4 0.00 0.00 0.00 61 1014.3
20260901114934 22 161 3.2 4.8 0.00 0.00 0.00 61 1014.2
20260901114429 22 185 1.6 4.8 0.00 0.00 0.00 62 1014.2
20260901113927 22 157 0.0 4.8 0.00 0.00 0.00 62 1014.3
20260901113427 22 151 0.0 3.2 0.00 0.00 0.00 62 1014.1
20260901112922 22 173 1.6 3.2 0.00 0.00 0.00 62 1014.2
20260901112417 22 151 0.0 3.2 0.00 0.00 0.00 62 1014.3
20260901111912 22 160 0.0 4.8 0.00 0.00 0.00 62 1013.9
20260901111410 22 180 1.6 4.8 0.00 0.00 0.00 62 1014.2
20260901110909 23 168 3.2 4.8 0.00 0.00 0.00 61 1014.1
20260901110405 23 172 3.2 4.8 0.00 0.00 0.00 60 1014.1
20260901105901 23 172 3.2 3.2 0.00 0.00 0.00 60 1013.9
20260901105356 23 168 1.6 4.8 0.00 0.00 0.00 59 1014.1
20260901104852 23 161 3.2 4.8 0.00 0.00 0.00 59 1013.8
20260901104347 23 151 0.0 4.8 0.00 0.00 0.00 59 1013.7
20260901103842 23 188 0.0 3.2 0.00 0.00 0.00 59 1014.2
20260901103336 23 195 0.0 3.2 0.00 0.00 0.00 59 1014.1
20260901102831 23 114 0.0 3.2 0.00 0.00 0.00 58 1014.1
20260901102326 23 157 1.6 3.2 0.00 0.00 0.00 59 1014.1
20260901101821 23 195 0.0 3.2 0.00 0.00 0.00 58 1013.8
20260901101320 23 157 0.0 4.8 0.00 0.00 0.00 58 1014.2
20260901100815 23 154 1.6 6.4 0.00 0.00 0.00 58 1013.8
20260901100310 23 194 1.6 6.4 0.00 0.00 0.00 58 1013.8
20260901095808 23 151 3.2 6.4 0.00 0.00 0.00 58 1013.7
20260901095307 23 145 0.0 4.8 0.00 0.00 0.00 58 1013.8
20260901094801 23 155 4.8 6.4 0.00 0.00 0.00 58 1013.5
20260901094255 23 150 3.2 8.0 0.00 0.00 0.00 59 1013.6
20260901093750 23 186 4.8 6.4 0.00 0.00 0.00 58 1013.9
20260901093249 23 173 0.0 3.2 0.00 0.00 0.00 58 1013.6
20260901092746 24 157 1.6 4.8 0.00 0.00 0.00 58 1013.6
20260901092241 24 191 3.2 9.7 0.00 0.00 0.00 58 1013.6
20260901091736 24 162 4.8 8.0 0.00 0.00 0.00 58 1013.7
20260901091232 24 160 6.4 8.0 0.00 0.00 0.00 58 1013.9
20260901090726 24 180 4.8 8.0 0.00 0.00 0.00 57 1013.8
20260901090222 24 175 8.0 8.0 0.00 0.00 0.00 57 1014.1
20260901085718 24 145 1.6 9.7 0.00 0.00 0.00 57 1013.8
20260901085213 25 180 4.8 8.0 0.00 0.00 0.00 56 1013.7
20260901084709 25 168 8.0 11.3 0.00 0.00 0.00 56 1013.5
20260901084205 24 159 8.0 9.7 0.00 0.00 0.00 56 1013.7
20260901083659 25 165 8.0 8.0 0.00 0.00 0.00 56 1013.9
20260901083158 25 177 4.8 6.4 0.00 0.00 0.00 55 1013.5
20260901082652 25 180 4.8 8.0 0.00 0.00 0.00 54 1013.7
20260901082148 25 180 4.8 8.0 0.00 0.00 0.00 53 1013.7
20260901081643 25 158 6.4 8.0 0.00 0.00 0.00 53 1013.8
20260901081142 25 188 3.2 9.7 0.00 0.00 0.00 52 1013.6
20260901080637 25 180 6.4 8.0 0.00 0.00 0.00 52 1013.9
20260901080136 25 189 4.8 8.0 0.00 0.00 0.00 51 1013.4
20260901075631 25 190 8.0 8.0 0.00 0.00 0.00 51 1013.6
20260901075131 25 154 3.2 6.4 0.00 0.00 0.00 51 1013.6
20260901074630 25 165 0.0 3.2 0.00 0.00 0.00 52 1013.8
20260901074125 25 261 0.0 1.6 0.00 0.00 0.00 51 1013.7
20260901073622 26 206 0.0 4.8 0.00 0.00 0.00 49 1013.8
20260901073117 26 166 3.2 4.8 0.00 0.00 0.00 50 1013.7
20260901072613 25 154 0.0 3.2 0.00 0.00 0.00 51 1013.8
20260901072107 25 78 0.0 3.2 0.00 0.00 0.00 51 1013.7
20260901071602 25 105 1.6 3.2 0.00 0.00 0.00 50 1013.5
20260901071101 25 140 0.0 3.2 0.00 0.00 0.00 50 1013.7
20260901070555 25 195 0.0 3.2 0.00 0.00 0.00 49 1013.8
20260901070051 26 90 0.0 1.6 0.00 0.00 0.00 49 1013.6
20260901065545 26 157 0.0 3.2 0.00 0.00 0.00 49 1013.5
20260901065045 26 173 0.0 1.6 0.00 0.00 0.00 48 1013.8
20260901064542 26 120 0.0 4.8 0.00 0.00 0.00 48 1013.8
20260901064038 27 176 3.2 6.4 0.00 0.00 0.00 48 1013.8
20260901063535 27 162 1.6 8.0 0.00 0.00 0.00 47 1014.1
20260901063031 27 180 1.6 3.2 0.00 0.00 0.00 46 1014.1
20260901062526 27 174 1.6 4.8 0.00 0.00 0.00 46 1014.1
20260901062022 27 194 4.8 11.3 0.00 0.00 0.00 45 1013.6
20260901061518 27 192 6.4 8.0 0.00 0.00 0.00 45 1013.6
20260901061013 28 169 8.0 11.3 0.00 0.00 0.00 45 1013.5
20260901060513 28 198 4.8 11.3 0.00 0.00 0.00 45 1013.5
20260901060008 28 195 4.8 9.7 0.00 0.00 0.00 44 1013.5
20260901055504 28 158 4.8 11.3 0.00 0.00 0.00 44 1013.6
20260901055001 28 180 4.8 11.3 0.00 0.00 0.00 44 1013.5
20260901054457 28 159 12.9 16.1 0.00 0.00 0.00 44 1013.4
20260901053953 28 156 3.2 17.7 0.00 0.00 0.00 43 1013.5
20260901053448 29 162 9.7 16.1 0.00 0.00 0.00 44 1013.2
20260901052944 29 181 11.3 19.3 0.00 0.00 0.00 44 1013.2
20260901052439 29 190 8.0 12.9 0.00 0.00 0.00 45 1013.1
20260901051937 29 155 8.0 14.5 0.00 0.00 0.00 45 1013.1
20260901051433 29 167 9.7 12.9 0.00 0.00 0.00 44 1013.1
20260901050927 29 195 8.0 14.5 0.00 0.00 0.00 44 1013.1
20260901050423 30 180 11.3 16.1 0.00 0.00 0.00 44 1013.1
20260901045923 30 181 9.7 16.1 0.00 0.00 0.00 44 1013.1
20260901045418 30 180 11.3 14.5 0.00 0.00 0.00 43 1012.7
20260901044913 30 180 9.7 16.1 0.00 0.00 0.00 43 1013.0
20260901044409 30 161 16.1 24.1 0.00 0.00 0.00 43 1013.0
20260901043905 30 163 11.3 19.3 0.00 0.00 0.00 42 1013.1
20260901043401 30 169 8.0 20.9 0.00 0.00 0.00 42 1013.0
20260901042901 30 165 12.9 17.7 0.00 0.00 0.00 41 1012.9
20260901042355 31 212 11.3 30.6 0.00 0.00 0.00 40 1013.1
20260901041851 31 146 11.3 27.4 0.00 0.00 0.00 38 1012.9
20260901041345 31 162 11.3 24.1 0.00 0.00 0.00 38 1012.7
20260901040839 31 159 16.1 32.2 0.00 0.00 0.00 38 1012.9
20260901040339 31 167 16.1 33.8 0.00 0.00 0.00 37 1012.4
20260901035833 31 182 9.7 22.5 0.00 0.00 0.00 36 1012.5
20260901035331 31 151 11.3 22.5 0.00 0.00 0.00 36 1012.5
20260901034824 31 182 12.9 20.9 0.00 0.00 0.00 35 1012.4
20260901034319 32 162 4.8 14.5 0.00 0.00 0.00 34 1012.4
20260901033814 31 189 4.8 19.3 0.00 0.00 0.00 34 1012.3
20260901033313 31 173 6.4 14.5 0.00 0.00 0.00 34 1012.3
20260901032812 31 170 6.4 14.5 0.00 0.00 0.00 34 1012.0
20260901032311 32 170 8.0 12.9 0.00 0.00 0.00 33 1011.9
20260901031806 32 151 8.0 16.1 0.00 0.00 0.00 33 1012.2
20260901031302 32 157 6.4 14.5 0.00 0.00 0.00 33 1012.0
20260901030802 32 182 14.5 14.5 0.00 0.00 0.00 33 1011.9
20260901030258 32 171 6.4 11.3 0.00 0.00 0.00 32 1012.0
20260901025756 32 111 8.0 12.9 0.00 0.00 0.00 32 1011.4
20260901025251 32 163 4.8 12.9 0.00 0.00 0.00 32 1011.8
20260901024746 32 120 4.8 9.7 0.00 0.00 0.00 32 1011.5
20260901024245 32 158 6.4 11.3 0.00 0.00 0.00 32 1011.4
20260901023743 32 166 9.7 9.7 0.00 0.00 0.00 32 1011.1
20260901023239 32 158 9.7 11.3 0.00 0.00 0.00 32 1011.1
20260901022734 32 196 4.8 11.3 0.00 0.00 0.00 31 1010.7
20260901022229 32 153 6.4 8.0 0.00 0.00 0.00 32 1010.8
20260901021725 32 156 3.2 6.4 0.00 0.00 0.00 31 1010.4
20260901021220 32 152 3.2 8.0 0.00 0.00 0.00 31 1010.3
20260901020715 32 168 6.4 8.0 0.00 0.00 0.00 31 1010.3
20260901020211 32 170 3.2 6.4 0.00 0.00 0.00 31 1010.2
20260901015706 32 190 3.2 8.0 0.00 0.00 0.00 30 1010.0
20260901015201 32 151 4.8 6.4 0.00 0.00 0.00 30 1009.9